Powrót do katalogu

ATLAS 5 CENTAUR DEB

AktywnyGEO
NORAD 50214·DEBRIS·🇺🇸 United States

Wystrzelony Dec 7, 2021 z Cape Canaveral Space Force Station

Loading…

TLE

ŚwieżeSource: Space-Track

Epoka: Sep 12, 2026, 20:53 UTC

1 50214U 21118D   26255.87038412 -.00000314  00000-0  00000-0 0  9997
2 50214   4.5365  76.2668 0012566  63.0319 297.4288  0.99331329 17292

Śledź ATLAS 5 CENTAUR DEB w czasie rzeczywistym z AllMySat

Download on the App Store